パンスターズ彗星

399P/PanSTARRS (2021)

English version
Home page
Updated on February 21, 2021

---------------------------------------------------------------------

・ プロフィール

符号 399P/2020 O4
検出日 2020年7月30日
検出光度 19.9等
検出者 Mount Lemmon Survey

・ 写真集

・ 軌道要素

Epoch 2021 May 26.0 TT = JDT 2459360.5
T 2021 May 22.57500 TT                                  Rudenko
q   2.0960533            (2000.0)            P               Q
n   0.13363522     Peri.  214.29502     +0.48497504     -0.86818824
a   3.7889782      Node   207.14621     +0.84510967     +0.49617562
e   0.4468025      Incl.   13.31913     +0.22491967     +0.00767748
P   7.38
From 303 observations 2013 July 16-2021 Jan. 12, mean residual 0".9.

・ 光度変化

        m1 = 13.2 + 5 logΔ + 10.0 log r           [    ,-125]  (              〜2021年 1月17日)
        m1 = 13.2 + 5 logΔ + 10.0 log r(t + 250)  [-125,    ]  (2021年 1月17日〜              )

---------------------------------------------------------------------

軌道要素はM.P.E.C. 2021-B143に掲載されたものです。
光度グラフはComet for Windowsで作成したものです。

---------------------------------------------------------------------

Copyright(C) Seiichi Yoshida (comet@aerith.net). All rights reserved.